Temperature
3 3 2 3 3 2 2 4 5 6 5 6 5 4 3 2 2 2 2 2 2 2 2 2 2 3 3 3 3 3 2 2 2 2 2 2 2 2 2 2 1 1 1 1
1 2 2 2 2 2 2 3 3 4 4 4 4 3 2 2 2 1 1 2 2 2 2 2 2 2 2 2 2 2 2 2 2 2 1 1 1 1 1 1 1 1 1 0
3 1 1 3 3 2 2 2 3 4 5 3 3 2 2 1 1 1 1 1 1 2 2 2 2 2 2 2 1 1 1 1 1 1 1 1 1 0 0 0 0 0 0 -0
2 1 3 5 2 2 2 2 2 2 2 2 2 1 1 1 1 1 1 1 1 1 1 1 1 1 1 1 1 1 1 1 1 0 0 0 0 -0 -0 -0 -0 -0 -0 -1
1 3 4 4 1 1 1 2 2 1 1 1 0 0 1 1 1 1 1 1 1 1 1 1 1 1 1 1 0 0 0 0 0 -0 -0 -0 -0 -1 -1 -1 -1 -1 -1 -1
1 2 3 4 1 -1 1 3 2 1 1 -0 -0 2 3 1 1 1 1 1 1 1 0 0 0 0 0 0 -0 -0 -0 -0 -0 -1 -1 -1 -1 -1 -1 -1 -1 -1 -2 -2
1 2 4 2 -1 -1 2 3 1 -0 -0 -1 0 1 0 0 0 0 0 0 0 0 0 0 -0 -0 -0 -0 -0 -1 -1 -1 -1 -1 -1 -2 -2 -2 -2 -2 -2 -2 -2 -2
0 1 3 -1 -1 1 2 0 -0 -1 -1 -1 -1 -1 -1 -0 -0 -0 -0 -0 -0 -0 -0 -1 -1 -1 -1 -1 -1 -1 -1 -2 -2 -2 -2 -2 -2 -2 -2 -3 -3 -3 -3 -3
1 2 -0 -2 -1 -1 -1 -1 -1 -1 -1 -1 -1 -1 -1 -1 -1 -1 -1 -1 -1 -1 -1 -1 -1 -2 -2 -2 -2 -2 -2 -2 -2 -2 -2 -3 -3 -3 -3 -3 -3 -3 -3 -3
-2 -1 -2 -2 -2 -1 -1 -1 -1 -1 -1 -1 -1 -1 -1 -1 -1 -1 -1 -1 -1 -1 -1 -2 -2 -2 -2 -2 -2 -3 -3 -3 -3 -3 -3 -3 -3 -3 -3 -3 -3 -4 -4 -4
-2 -2 -2 -2 -2 -1 -1 -1 -1 -1 -1 -1 -1 -2 -2 -2 -2 -2 -2 -2 -2 -2 -2 -2 -2 -3 -3 -3 -3 -3 -3 -3 -3 -3 -4 -4 -4 -4 -4 -4 -4 -4 -4 -4
-0 -1 -2 -1 -1 -1 -1 -1 -2 -2 -2 -2 -2 -2 -2 -2 -3 -3 -3 -3 -3 -3 -3 -3 -3 -3 -3 -3 -4 -4 -4 -4 -4 -4 -4 -4 -4 -4 -4 -4 -4 -5 -5 -5
-2 -2 -3 -2 -2 -2 -2 -2 -2 -2 -2 -2 -2 -3 -3 -3 -3 -3 -4 -4 -4 -4 -4 -4 -4 -4 -4 -4 -4 -4 -4 -4 -4 -5 -5 -5 -5 -5 -5 -5 -5 -5 -5 -5
-3 -3 -4 -3 -3 -3 -3 -3 -3 -3 -3 -3 -3 -3 -4 -4 -4 -4 -4 -4 -4 -4 -4 -4 -4 -4 -5 -5 -5 -5 -5 -5 -5 -5 -5 -5 -5 -5 -5 -5 -5 -5 -5 -5
-3 -3 -4 -3 -3 -3 -4 -4 -4 -4 -4 -4 -4 -4 -4 -4 -4 -4 -4 -5 -5 -5 -5 -5 -5 -5 -5 -5 -5 -5 -5 -5 -5 -5 -5 -5 -5 -6 -6 -6 -6 -6 -6 -6
-4 -4 -4 -4 -4 -4 -4 -4 -4 -4 -4 -4 -5 -5 -5 -5 -5 -5 -5 -5 -5 -5 -5 -5 -5 -5 -5 -5 -6 -5 -5 -5 -6 -6 -6 -6 -6 -6 -6 -6 -6 -6 -6 -6
-5 -5 -5 -5 -4 -4 -4 -5 -5 -5 -5 -5 -5 -5 -5 -5 -5 -5 -5 -5 -5 -5 -5 -5 -5 -6 -6 -6 -6 -6 -6 -6 -6 -6 -6 -6 -6 -6 -6 -6 -6 -6 -6 -7
-4 -4 -4 -4 -5 -5 -5 -5 -5 -5 -6 -6 -6 -6 -6 -6 -6 -6 -6 -6 -6 -6 -6 -6 -6 -6 -6 -6 -6 -6 -6 -6 -7 -7 -6 -7 -7 -7 -7 -7 -7 -7 -7 -7
-5 -5 -5 -5 -5 -5 -5 -6 -6 -6 -6 -6 -6 -6 -6 -6 -6 -6 -6 -6 -6 -6 -6 -6 -6 -6 -6 -6 -7 -7 -7 -7 -7 -7 -7 -7 -7 -7 -7 -7 -7 -7 -7 -7
-5 -5 -5 -5 -6 -6 -6 -6 -6 -6 -7 -7 -7 -7 -7 -7 -7 -7 -7 -7 -7 -7 -7 -7 -7 -7 -7 -7 -7 -7 -7 -7 -7 -7 -7 -7 -7 -7 -7 -7 -7 -7 -7 -7
-6 -6 -6 -6 -6 -6 -6 -6 -7 -7 -7 -7 -7 -7 -7 -7 -7 -7 -7 -7 -7 -7 -7 -7 -7 -7 -7 -7 -7 -7 -7 -7 -7 -7 -7 -7 -8 -7 -7 -8 -8 -8 -8 -8
-6 -6 -6 -6 -6 -6 -7 -7 -7 -7 -7 -7 -7 -7 -7 -7 -7 -7 -7 -7 -7 -7 -7 -7 -7 -7 -7 -7 -8 -8 -8 -8 -8 -8 -8 -8 -8 -8 -8 -8 -8 -8 -8 -8
-6 -6 -6 -6 -6 -7 -7 -7 -7 -7 -7 -7 -7 -7 -7 -7 -7 -7 -8 -8 -8 -8 -8 -8 -8 -8 -8 -8 -8 -8 -8 -8 -8 -8 -8 -8 -8 -8 -8 -8 -8 -8 -8 -8
-7 -7 -7 -7 -7 -7 -7 -7 -7 -7 -8 -8 -8 -8 -8 -8 -8 -8 -8 -8 -8 -8 -8 -8 -8 -8 -8 -8 -8 -8 -8 -8 -8 -8 -8 -8 -8 -8 -8 -8 -8 -8 -8 -8
-7 -7 -7 -7 -7 -7 -7 -7 -8 -8 -8 -8 -8 -8 -8 -8 -8 -8 -8 -8 -8 -8 -8 -8 -8 -8 -8 -8 -8 -8 -8 -9 -9 -9 -9 -9 -8 -8 -8 -9 -9 -9 -8 -8
-7 -7 -7 -7 -8 -8 -8 -8 -8 -8 -8 -8 -8 -8 -8 -8 -8 -8 -8 -8 -8 -8 -8 -8 -8 -9 -9 -9 -9 -9 -9 -9 -9 -9 -9 -9 -9 -9 -9 -9 -9 -9 -9 -9
-8 -8 -8 -8 -8 -8 -8 -8 -8 -8 -8 -8 -8 -9 -9 -9 -9 -9 -9 -9 -9 -9 -9 -9 -9 -9 -9 -9 -9 -9 -9 -9 -9 -9 -9 -9 -9 -9 -9 -9 -9 -9 -9 -9
Wind_Speed
6 5 4 6 9 11 12 12 10 10 10 11 8 7 6 5 4 4 4 4 4 4 3 3 3 3 3 3 3 3 3 3 3 2 2 1 1 2 2 2 2 2 2 2
4 5 5 8 11 13 14 13 14 14 14 8 6 5 5 5 5 5 5 5 4 4 4 4 4 3 3 3 3 3 3 3 2 2 2 2 2 1 1 1 2 2 2 3
4 2 3 10 12 13 10 10 11 14 11 5 6 6 6 6 5 6 6 6 5 4 4 4 4 3 3 3 3 3 3 3 2 2 2 2 2 2 2 2 2 2 2 3
2 2 8 4 1 7 10 10 11 9 7 6 7 6 6 5 5 6 6 6 5 4 4 3 3 3 3 3 3 3 3 3 3 3 2 2 2 2 2 2 2 2 2 2
3 5 8 5 2 4 7 7 8 10 9 5 3 3 4 3 3 4 5 5 4 4 3 3 3 3 3 3 3 3 3 3 3 3 3 3 2 2 2 2 2 2 2 3
4 5 7 2 2 2 3 5 3 6 7 4 2 4 3 2 3 4 4 3 3 2 2 2 2 3 3 3 3 3 3 2 2 3 3 3 3 2 2 2 2 2 2 2
8 8 7 1 2 5 4 3 0 3 4 3 4 4 4 4 3 3 3 2 2 1 1 2 2 3 3 3 3 3 2 2 2 2 3 3 3 3 3 2 2 2 2 2
7 8 7 3 5 6 2 2 1 2 2 3 4 4 4 4 4 3 3 2 1 1 1 1 2 3 3 3 3 2 2 2 2 2 2 2 3 3 3 3 3 3 2 2
7 6 2 4 4 3 2 2 2 2 2 3 3 4 4 4 4 4 3 2 1 1 1 1 2 3 3 3 2 2 2 2 2 2 2 2 3 3 3 3 3 2 2 2
5 6 4 5 5 4 4 4 4 3 3 3 4 4 4 4 4 3 3 2 1 1 1 1 2 2 2 2 2 3 3 2 2 2 2 2 2 3 3 3 3 3 3 3
7 6 4 5 6 6 5 4 4 4 3 3 4 4 4 4 4 3 2 2 1 2 2 2 1 1 1 2 2 3 3 3 2 2 2 2 2 3 3 3 3 3 3 3
7 5 5 5 4 4 4 5 4 4 3 3 3 4 4 4 3 3 2 2 2 2 2 2 1 1 1 1 2 3 3 3 2 2 2 2 2 2 3 4 4 5 5 5
6 4 4 5 5 4 4 4 3 3 3 3 3 3 3 3 2 2 2 2 2 2 2 2 1 1 1 1 2 3 3 3 2 2 2 2 2 2 2 2 3 3 4 5
6 3 4 4 4 3 2 2 1 1 1 1 2 2 2 2 2 2 2 2 2 2 2 2 1 2 2 1 2 2 2 2 2 2 2 3 3 3 2 2 2 2 3 4
5 5 5 3 2 2 1 0 0 1 1 1 1 1 2 2 3 3 2 1 1 1 1 1 2 2 2 1 2 2 2 2 2 2 2 3 3 3 3 3 3 3 2 2
3 2 3 3 3 2 1 2 2 2 2 2 2 2 2 2 2 2 1 1 1 2 2 2 2 2 2 2 2 2 2 3 2 2 2 2 3 3 3 3 3 3 3 3
3 3 3 3 3 3 3 3 3 3 2 2 3 2 1 1 1 1 1 1 1 2 2 2 3 2 2 2 2 2 2 2 3 2 2 2 3 3 3 3 3 3 3 3
3 3 3 3 3 2 2 2 2 2 2 2 2 1 1 1 1 2 2 1 1 2 2 2 2 2 2 2 2 2 2 2 2 2 2 2 3 3 3 3 3 3 3 3
1 2 1 1 1 2 2 2 1 2 2 1 1 1 1 2 2 1 1 1 1 2 2 2 3 2 2 2 2 2 2 2 2 2 2 3 3 3 3 3 3 3 3 3
1 1 2 1 1 1 1 1 1 1 1 1 1 1 1 1 1 1 1 1 2 2 2 3 2 2 2 2 2 2 2 2 2 2 2 3 3 3 3 3 3 3 3 4
1 1 1 1 1 0 0 0 1 1 0 1 1 1 1 1 1 1 1 1 2 2 2 3 2 2 2 2 2 2 2 2 2 2 3 3 3 3 3 3 3 3 3 4
1 1 1 1 1 0 1 0 0 1 0 0 1 1 0 1 1 1 1 2 2 3 3 2 2 2 2 2 1 2 2 2 2 2 3 3 3 3 3 3 3 4 4 4
0 1 1 1 1 0 1 0 0 1 1 1 1 1 1 1 1 1 2 2 2 3 3 2 3 3 1 1 1 1 2 2 2 3 3 3 3 3 3 3 3 4 4 4
1 1 1 0 1 1 0 1 1 1 1 1 1 1 1 1 1 2 2 3 4 4 2 3 4 3 1 1 1 1 1 2 2 2 2 2 3 3 3 3 4 4 4 4
1 1 1 1 1 1 1 1 0 0 0 1 1 1 1 1 2 2 2 2 3 3 2 2 3 3 2 1 1 1 2 2 2 2 2 2 2 3 3 3 4 4 4 4
1 1 1 1 1 1 1 1 0 0 0 1 1 1 1 1 1 1 1 2 2 2 2 2 2 2 2 1 1 2 2 2 2 2 2 2 3 3 3 3 4 4 4 4
1 0 0 0 0 1 1 1 1 1 1 1 1 2 2 1 1 1 2 1 2 2 2 2 2 2 2 2 2 2 2 2 2 2 2 2 2 3 3 4 4 4 4 4
Wind_Direction
263 273 248 245 234 219 224 233 241 252 255 270 269 269 275 277 279 275 272 269 260 243 227 215 211 202 194 193 191 188 180 184 192 185 182 183 189 195 194 194 200 207 216 227
257 255 251 258 248 234 235 239 244 259 266 266 276 270 267 271 274 274 274 273 266 240 226 219 213 206 198 199 198 191 187 193 188 180 179 185 190 191 199 206 210 214 224 229
246 271 265 256 236 219 222 224 227 241 255 265 271 266 264 264 264 265 272 277 272 253 237 234 225 212 208 208 201 193 193 193 192 187 189 192 183 191 206 214 219 224 229 231
241 219 238 252 172 208 223 240 231 245 264 262 267 282 277 265 261 267 271 272 269 267 257 249 236 221 211 199 195 195 196 195 197 194 196 197 196 205 218 222 222 227 228 233
210 244 266 266 205 188 211 251 233 236 252 266 299 302 277 272 266 272 274 274 275 274 264 249 228 208 192 192 195 197 202 205 207 201 197 201 209 217 220 224 232 236 237 240
207 236 247 262 135 166 185 255 223 221 238 248 249 266 284 314 299 292 297 296 296 287 263 233 222 195 187 194 197 209 215 216 211 207 203 209 215 219 226 226 237 242 247 250
219 237 259 279 153 163 204 263 166 214 225 209 229 266 315 329 315 305 307 309 299 269 245 229 207 191 197 200 214 220 213 208 207 208 210 214 214 217 218 219 225 232 241 251
204 227 245 144 155 197 251 350 277 226 226 232 259 290 311 318 317 320 319 317 301 265 266 247 207 196 203 218 221 205 196 199 209 216 212 212 209 215 218 215 220 227 236 253
209 228 312 176 212 265 308 279 268 252 242 231 256 277 297 307 313 315 311 305 292 260 263 258 224 207 212 226 205 195 198 207 211 214 219 218 216 215 217 220 223 229 236 247
248 254 256 249 261 275 272 271 275 264 247 232 253 274 288 295 302 308 310 301 286 242 243 265 250 234 222 215 200 194 201 211 211 210 218 223 224 220 220 222 225 226 236 248
248 263 277 251 249 259 266 269 268 266 252 242 248 271 279 284 291 297 296 289 254 234 247 265 268 252 234 208 196 200 206 209 213 216 217 222 231 232 232 236 236 235 237 241
243 234 228 252 253 253 253 258 256 258 267 263 247 261 273 278 285 288 282 276 260 252 254 264 264 262 259 229 204 199 207 212 216 218 222 226 230 245 241 245 249 255 258 257
252 256 249 261 268 260 257 262 261 252 255 265 268 259 262 275 284 284 277 263 252 252 256 258 257 269 273 240 212 208 214 220 223 224 227 231 234 235 247 256 249 254 258 262
241 239 252 252 256 270 270 279 308 330 299 270 271 266 263 273 281 273 269 269 264 252 249 248 250 264 274 235 217 220 223 226 230 229 232 235 241 241 239 244 262 276 268 261
236 230 230 241 257 274 286 214 225 294 317 312 289 264 255 256 267 276 285 286 254 237 247 250 257 272 284 242 223 226 228 229 230 234 235 238 242 243 238 242 251 263 272 269
233 226 219 227 238 250 242 224 238 269 291 293 287 281 274 265 271 286 287 237 216 249 265 261 265 274 272 250 234 233 233 237 239 236 237 238 237 238 237 241 248 253 258 268
190 212 215 228 237 240 237 235 242 261 277 274 277 287 281 258 278 294 302 291 263 268 268 259 265 274 265 251 238 238 238 234 231 234 235 236 239 241 240 243 248 256 261 265
219 221 210 207 210 218 238 251 249 256 262 267 273 246 217 219 253 287 306 327 329 317 297 278 276 274 263 254 244 243 237 235 231 233 237 241 248 246 243 245 248 253 262 266
175 169 172 187 205 201 223 246 254 259 266 240 210 224 239 247 257 276 298 315 303 301 308 303 291 280 268 254 246 239 234 233 239 246 249 252 257 253 250 250 253 257 261 264
106 115 129 126 115 164 206 246 252 260 263 202 186 203 262 282 275 268 269 280 279 289 302 296 282 279 272 255 243 238 234 236 243 250 250 250 255 259 260 259 260 262 264 265
119 113 125 137 120 75 254 234 203 226 258 176 187 218 261 297 297 263 257 306 321 312 302 297 295 286 271 254 238 239 239 244 248 250 250 255 260 263 264 266 268 268 269 271
131 123 130 146 139 5 344 305 223 216 203 196 220 227 257 303 307 288 259 268 304 318 314 302 298 286 281 262 240 241 246 249 252 254 256 260 260 263 267 271 271 271 271 272
161 151 165 181 185 256 333 321 248 222 226 239 240 243 254 276 279 271 298 307 307 316 321 308 307 307 316 302 277 260 259 258 259 259 262 263 263 265 268 272 274 274 274 276
165 159 167 152 130 127 325 316 306 278 266 272 267 259 259 278 291 278 284 304 321 321 318 316 325 334 351 331 303 291 282 276 272 269 267 268 268 270 272 274 276 277 276 277
159 145 143 155 167 219 265 290 356 8 0 329 319 304 272 259 262 286 300 304 316 326 324 332 343 353 350 315 304 295 289 286 285 281 275 271 270 272 275 276 275 277 277 278
159 179 200 222 234 245 245 221 223 271 306 319 324 323 322 310 287 285 294 308 321 340 342 334 335 340 328 317 307 300 295 294 291 289 284 280 278 279 280 279 280 279 280 281
134 150 182 272 273 239 230 222 228 253 261 266 292 311 320 319 315 316 318 321 332 337 333 331 333 331 326 322 314 304 298 295 292 291 286 282 284 286 287 286 285 285 287 286
Height
1495 1495 1496 1494 1493 1495 1495 1488 1484 1476 1478 1473 1475 1477 1477 1477 1476 1476 1476 1475 1474 1474 1474 1475 1475 1476 1477 1478 1479 1480 1481 1482 1483 1483 1484 1485 1486 1486 1486 1487 1488 1488 1488 1489
1496 1495 1496 1494 1490 1490 1490 1487 1484 1482 1478 1474 1475 1475 1475 1475 1474 1473 1473 1472 1472 1472 1472 1472 1473 1473 1474 1475 1476 1477 1478 1479 1480 1481 1482 1482 1482 1482 1483 1484 1484 1485 1485 1485
1488 1495 1494 1484 1479 1482 1482 1480 1480 1476 1471 1473 1473 1472 1472 1472 1471 1471 1470 1469 1469 1469 1469 1470 1470 1470 1471 1472 1473 1474 1475 1476 1477 1478 1479 1479 1479 1479 1480 1481 1481 1481 1482 1482
1491 1494 1485 1469 1475 1475 1476 1475 1475 1473 1471 1471 1471 1471 1470 1469 1469 1468 1467 1467 1466 1466 1467 1467 1468 1468 1469 1470 1470 1471 1472 1473 1474 1475 1475 1476 1476 1477 1477 1478 1478 1478 1478 1478
1490 1481 1470 1470 1473 1475 1475 1471 1470 1471 1470 1470 1470 1469 1468 1467 1467 1466 1465 1465 1464 1464 1464 1464 1465 1465 1466 1466 1467 1468 1469 1470 1471 1471 1472 1473 1473 1474 1474 1475 1475 1475 1475 1475
1488 1480 1470 1464 1472 1473 1474 1468 1466 1467 1467 1468 1469 1467 1465 1465 1465 1464 1463 1463 1462 1461 1461 1461 1462 1462 1463 1463 1464 1465 1466 1467 1467 1468 1469 1470 1470 1471 1471 1472 1472 1472 1471 1471
1483 1476 1464 1468 1472 1473 1470 1463 1464 1464 1465 1466 1467 1466 1465 1463 1463 1462 1461 1460 1460 1459 1459 1459 1459 1460 1460 1461 1461 1462 1463 1464 1464 1465 1466 1467 1467 1467 1468 1468 1469 1469 1468 1468
1479 1475 1466 1469 1470 1468 1463 1464 1463 1463 1463 1464 1464 1463 1462 1462 1461 1460 1459 1458 1457 1457 1456 1456 1457 1457 1457 1458 1459 1460 1460 1461 1461 1462 1463 1464 1464 1464 1465 1465 1465 1465 1465 1465
1469 1466 1465 1466 1465 1464 1464 1463 1462 1462 1462 1462 1461 1461 1460 1459 1459 1458 1457 1456 1455 1455 1454 1454 1454 1455 1455 1455 1456 1456 1457 1458 1459 1459 1460 1461 1461 1461 1461 1462 1462 1462 1462 1462
1470 1464 1464 1464 1463 1462 1462 1462 1461 1461 1461 1460 1459 1459 1458 1457 1456 1455 1455 1454 1453 1452 1452 1452 1452 1452 1452 1453 1453 1454 1454 1455 1456 1457 1457 1457 1458 1458 1458 1458 1458 1459 1459 1458
1465 1463 1462 1460 1460 1460 1460 1459 1459 1459 1459 1458 1457 1457 1456 1455 1454 1453 1452 1452 1451 1451 1450 1450 1450 1450 1450 1450 1451 1451 1451 1452 1453 1454 1454 1454 1455 1455 1455 1455 1456 1456 1455 1455
1457 1457 1459 1457 1457 1457 1457 1456 1456 1456 1456 1456 1455 1455 1454 1453 1452 1451 1450 1449 1449 1448 1448 1448 1448 1448 1448 1448 1448 1449 1449 1449 1450 1451 1451 1451 1451 1452 1452 1452 1452 1452 1452 1452
1455 1454 1455 1454 1454 1454 1454 1454 1454 1453 1453 1453 1453 1452 1452 1451 1450 1449 1448 1447 1447 1446 1446 1446 1445 1445 1446 1446 1446 1447 1447 1447 1448 1448 1448 1448 1448 1448 1448 1449 1449 1448 1448 1448
1451 1452 1451 1451 1451 1451 1451 1451 1451 1451 1450 1450 1450 1450 1449 1448 1448 1447 1446 1446 1445 1445 1444 1444 1443 1443 1444 1444 1444 1445 1445 1445 1445 1445 1445 1445 1446 1446 1446 1445 1445 1445 1445 1445
1448 1448 1448 1448 1448 1448 1448 1448 1448 1448 1448 1448 1447 1447 1447 1446 1445 1445 1444 1444 1443 1443 1442 1442 1441 1442 1442 1442 1442 1442 1442 1442 1443 1443 1443 1443 1443 1443 1443 1443 1442 1442 1442 1442
1444 1445 1445 1445 1445 1445 1446 1446 1445 1445 1445 1445 1445 1445 1444 1444 1443 1443 1442 1442 1441 1440 1440 1440 1439 1439 1439 1439 1440 1440 1440 1440 1440 1440 1440 1440 1440 1440 1440 1440 1440 1439 1439 1439
1442 1442 1442 1443 1442 1443 1443 1443 1443 1443 1443 1443 1443 1442 1442 1441 1441 1440 1440 1440 1439 1438 1438 1438 1438 1438 1437 1437 1437 1438 1438 1438 1438 1438 1438 1438 1438 1437 1437 1437 1437 1437 1436 1436
1439 1440 1440 1440 1440 1441 1441 1441 1441 1441 1441 1441 1441 1440 1440 1439 1439 1438 1438 1437 1437 1437 1436 1436 1436 1435 1435 1435 1435 1435 1435 1435 1435 1435 1435 1435 1435 1435 1435 1434 1434 1434 1433 1433
1438 1438 1438 1439 1439 1439 1439 1439 1439 1439 1439 1439 1439 1438 1438 1438 1437 1437 1436 1435 1435 1434 1434 1434 1434 1433 1433 1433 1433 1433 1433 1433 1433 1433 1432 1432 1432 1432 1432 1431 1431 1431 1430 1430
1437 1437 1437 1437 1438 1438 1438 1438 1438 1438 1438 1437 1437 1437 1436 1436 1436 1435 1434 1434 1433 1433 1433 1432 1432 1431 1431 1431 1431 1430 1430 1430 1430 1430 1430 1429 1429 1429 1429 1428 1428 1428 1427 1427
1436 1436 1436 1436 1437 1437 1437 1437 1436 1436 1436 1436 1436 1435 1435 1434 1434 1433 1432 1432 1432 1431 1431 1430 1430 1429 1429 1429 1428 1428 1428 1428 1428 1427 1427 1427 1426 1426 1426 1425 1425 1425 1424 1424
1435 1435 1436 1436 1436 1436 1436 1436 1436 1435 1435 1435 1434 1434 1433 1433 1432 1432 1431 1431 1430 1430 1429 1428 1428 1427 1427 1427 1426 1426 1426 1425 1425 1425 1424 1424 1424 1423 1423 1422 1422 1421 1421 1420
1435 1435 1435 1435 1435 1435 1435 1435 1435 1434 1434 1433 1433 1433 1432 1432 1431 1430 1429 1429 1428 1428 1427 1426 1426 1426 1425 1424 1424 1424 1423 1423 1422 1422 1422 1421 1421 1420 1420 1419 1419 1418 1417 1417
1434 1434 1434 1434 1434 1434 1434 1434 1433 1433 1433 1432 1432 1432 1431 1430 1429 1429 1428 1427 1427 1426 1425 1425 1424 1424 1423 1422 1422 1421 1421 1420 1420 1419 1419 1418 1418 1417 1417 1416 1416 1415 1414 1413
1433 1433 1433 1433 1433 1433 1433 1432 1432 1431 1431 1431 1431 1430 1429 1429 1428 1427 1426 1426 1425 1424 1423 1423 1422 1422 1421 1421 1420 1419 1419 1418 1418 1417 1417 1416 1415 1415 1414 1413 1412 1412 1411 1410
1432 1432 1432 1432 1432 1431 1431 1431 1430 1430 1429 1429 1429 1428 1428 1427 1426 1426 1425 1424 1423 1423 1422 1421 1421 1420 1419 1419 1418 1418 1417 1416 1416 1415 1414 1413 1413 1412 1411 1410 1409 1408 1407 1406
1431 1431 1430 1430 1430 1430 1429 1429 1429 1428 1428 1427 1427 1426 1426 1425 1425 1424 1423 1422 1422 1421 1420 1419 1419 1418 1418 1417 1417 1416 1415 1414 1414 1413 1412 1411 1410 1409 1408 1407 1406 1405 1404 1403